Voltar ao catálogo

GLOBALSTAR M090

AtivoComunicaçõesLEO
NORAD 38044·PAYLOAD·🇺🇸 United States

Lançado Dec 28, 2011 de Baikonur Cosmodrome

Loading…

Próximas Passagens (próximas 24 horas)

TLE

AtualizadoSource: Space-Track

Época: Sep 14, 2026, 20:40 UTC

1 38044U 11080E   26257.86138309 -.00000118  00000-0 -82127-4 0  9995
2 38044  52.0123  55.5238 0000877 113.4094  50.3246 12.62268218681032

Acompanhe GLOBALSTAR M090 em tempo real com AllMySat

Download on the App Store